| time (UTC) | temp C | wind direction | speed KPH | gust KPH | rain 1hr cm | rain 24hr cm | rain mn cm | humidity % | barometer mb |
| 20260506114031 | 9 | 331 | 8.0 | 16.1 | 0.00 | 0.00 | 0.00 | 78 | 1016.3 |
| 20260506113531 | 9 | 359 | 8.0 | 16.1 | 0.00 | 0.00 | 0.00 | 78 | 1016.3 |
| 20260506113051 | 9 | 83 | 4.8 | 12.9 | 0.00 | 0.00 | 0.00 | 78 | 1016.3 |
| 20260506112527 | 9 | 25 | 3.2 | 14.5 | 0.00 | 0.00 | 0.00 | 78 | 1016.2 |
| 20260506112028 | 9 | 12 | 8.0 | 16.1 | 0.00 | 0.00 | 0.00 | 77 | 1016.2 |
| 20260506111542 | 9 | 13 | 4.8 | 17.7 | 0.00 | 0.00 | 0.00 | 77 | 1016.2 |
| 20260506111028 | 9 | 18 | 8.0 | 17.7 | 0.00 | 0.00 | 0.00 | 77 | 1016.2 |
| 20260506110529 | 9 | 8 | 6.4 | 12.9 | 0.00 | 0.00 | 0.00 | 77 | 1016.2 |
| 20260506110041 | 9 | 27 | 3.2 | 14.5 | 0.00 | 0.00 | 0.00 | 77 | 1016.1 |
| 20260506105530 | 9 | 34 | 4.8 | 14.5 | 0.00 | 0.00 | 0.00 | 77 | 1015.8 |
| 20260506105026 | 9 | 40 | 4.8 | 14.5 | 0.00 | 0.00 | 0.00 | 77 | 1015.7 |
| 20260506104545 | 9 | 19 | 4.8 | 16.1 | 0.00 | 0.00 | 0.00 | 77 | 1015.6 |
| 20260506104030 | 9 | 14 | 4.8 | 16.1 | 0.00 | 0.00 | 0.00 | 77 | 1015.7 |
| 20260506103529 | 9 | 56 | 6.4 | 16.1 | 0.00 | 0.00 | 0.00 | 77 | 1015.5 |
| 20260506103041 | 9 | 13 | 4.8 | 16.1 | 0.00 | 0.00 | 0.00 | 77 | 1015.5 |
| 20260506102528 | 9 | 70 | 6.4 | 16.1 | 0.00 | 0.00 | 0.00 | 76 | 1015.5 |
| 20260506102028 | 9 | 15 | 6.4 | 12.9 | 0.00 | 0.00 | 0.00 | 76 | 1015.4 |
| 20260506101548 | 9 | 4 | 3.2 | 12.9 | 0.00 | 0.00 | 0.00 | 77 | 1015.5 |
| 20260506101026 | 10 | 64 | 3.2 | 12.9 | 0.00 | 0.00 | 0.00 | 76 | 1015.5 |
| 20260506100526 | 10 | 0 | 6.4 | 12.9 | 0.00 | 0.00 | 0.00 | 76 | 1015.4 |
| 20260506100042 | 10 | 35 | 8.0 | 14.5 | 0.00 | 0.00 | 0.00 | 76 | 1015.4 |
| 20260506095526 | 10 | 48 | 6.4 | 14.5 | 0.00 | 0.00 | 0.00 | 76 | 1015.3 |
| 20260506095027 | 10 | 9 | 4.8 | 11.3 | 0.00 | 0.00 | 0.00 | 76 | 1015.3 |
| 20260506094543 | 10 | 42 | 1.6 | 9.7 | 0.00 | 0.00 | 0.00 | 76 | 1015.4 |
| 20260506094026 | 10 | 90 | 3.2 | 9.7 | 0.00 | 0.00 | 0.00 | 76 | 1015.3 |
| 20260506093526 | 10 | 56 | 3.2 | 9.7 | 0.00 | 0.00 | 0.00 | 75 | 1015.0 |
| 20260506093041 | 10 | 44 | 1.6 | 11.3 | 0.00 | 0.00 | 0.00 | 75 | 1014.6 |
| 20260506092528 | 10 | 18 | 6.4 | 11.3 | 0.00 | 0.00 | 0.00 | 74 | 1014.4 |
| 20260506092026 | 10 | 91 | 1.6 | 12.9 | 0.00 | 0.00 | 0.00 | 74 | 1014.3 |
| 20260506091538 | 10 | 11 | 4.8 | 12.9 | 0.00 | 0.00 | 0.00 | 72 | 1014.1 |
| 20260506091026 | 10 | 21 | 6.4 | 14.5 | 0.00 | 0.00 | 0.00 | 71 | 1014.0 |
| 20260506090529 | 10 | 29 | 4.8 | 19.3 | 0.00 | 0.00 | 0.00 | 71 | 1013.7 |
| 20260506090037 | 10 | 18 | 6.4 | 19.3 | 0.00 | 0.00 | 0.00 | 71 | 1013.5 |
| 20260506085526 | 10 | 41 | 6.4 | 14.5 | 0.00 | 0.00 | 0.00 | 71 | 1013.4 |
| 20260506085027 | 10 | 53 | 6.4 | 14.5 | 0.00 | 0.00 | 0.00 | 71 | 1013.4 |
| 20260506084543 | 10 | 14 | 4.8 | 17.7 | 0.00 | 0.00 | 0.00 | 71 | 1013.4 |
| 20260506084026 | 10 | 104 | 3.2 | 19.3 | 0.00 | 0.00 | 0.00 | 71 | 1013.3 |
| 20260506083525 | 10 | 28 | 6.4 | 19.3 | 0.00 | 0.00 | 0.00 | 71 | 1013.4 |
| 20260506083047 | 10 | 4 | 4.8 | 16.1 | 0.00 | 0.00 | 0.00 | 71 | 1013.3 |
| 20260506082525 | 10 | 354 | 4.8 | 24.1 | 0.00 | 0.00 | 0.00 | 71 | 1013.2 |
| 20260506082029 | 10 | 8 | 6.4 | 24.1 | 0.00 | 0.00 | 0.00 | 71 | 1013.0 |
| 20260506081541 | 10 | 23 | 4.8 | 19.3 | 0.00 | 0.00 | 0.00 | 71 | 1013.1 |
| 20260506081035 | 10 | 45 | 6.4 | 19.3 | 0.00 | 0.00 | 0.00 | 71 | 1013.2 |
| 20260506080532 | 10 | 66 | 6.4 | 14.5 | 0.00 | 0.00 | 0.00 | 70 | 1012.9 |
| 20260506073529 | 10 | 18 | 4.8 | 11.3 | 0.00 | 0.00 | 0.00 | 70 | 1013.2 |
| 20260506073048 | 10 | 49 | 6.4 | 14.5 | 0.00 | 0.00 | 0.00 | 69 | 1013.3 |
| 20260506072530 | 10 | 307 | 3.2 | 14.5 | 0.00 | 0.00 | 0.00 | 69 | 1013.1 |
| 20260506072028 | 10 | 77 | 3.2 | 14.5 | 0.00 | 0.00 | 0.00 | 69 | 1012.9 |
| 20260506071545 | 10 | 160 | 6.4 | 14.5 | 0.00 | 0.00 | 0.00 | 69 | 1013.2 |
| 20260506071033 | 10 | 72 | 3.2 | 17.7 | 0.00 | 0.00 | 0.00 | 69 | 1013.3 |
| 20260506070531 | 10 | 99 | 6.4 | 17.7 | 0.00 | 0.00 | 0.00 | 69 | 1013.3 |
| 20260506062030 | 10 | 117 | 8.0 | 19.3 | 0.00 | 0.00 | 0.00 | 66 | 1012.9 |
| 20260506061542 | 10 | 95 | 4.8 | 25.7 | 0.00 | 0.00 | 0.00 | 66 | 1013.0 |
| 20260506061034 | 10 | 103 | 6.4 | 25.7 | 0.00 | 0.00 | 0.00 | 66 | 1013.1 |
| 20260506060530 | 10 | 69 | 9.7 | 25.7 | 0.00 | 0.00 | 0.00 | 65 | 1012.9 |
| 20260506051030 | 10 | 98 | 4.8 | 24.1 | 0.00 | 0.00 | 0.00 | 66 | 1013.2 |
| 20260506050530 | 10 | 89 | 6.4 | 24.1 | 0.00 | 0.00 | 0.00 | 66 | 1013.3 |
| 20260506045033 | 10 | 25 | 9.7 | 25.7 | 0.00 | 0.00 | 0.00 | 67 | 1012.9 |
| 20260506044542 | 10 | 83 | 11.3 | 30.6 | 0.00 | 0.00 | 0.00 | 67 | 1012.8 |
| 20260506044028 | 11 | 328 | 9.7 | 30.6 | 0.00 | 0.00 | 0.00 | 66 | 1012.9 |
| 20260506043530 | 11 | 71 | 6.4 | 29.0 | 0.00 | 0.00 | 0.00 | 66 | 1012.7 |
| 20260506043044 | 11 | 347 | 16.1 | 29.0 | 0.00 | 0.00 | 0.00 | 65 | 1012.4 |
| 20260506042530 | 11 | 352 | 12.9 | 24.1 | 0.00 | 0.00 | 0.00 | 67 | 1012.6 |
| 20260506042030 | 11 | 32 | 8.0 | 24.1 | 0.00 | 0.00 | 0.00 | 68 | 1012.6 |
| 20260506041542 | 11 | 85 | 11.3 | 30.6 | 0.00 | 0.00 | 0.00 | 69 | 1012.9 |
| 20260506041028 | 11 | 135 | 12.9 | 30.6 | 0.00 | 0.00 | 0.00 | 70 | 1012.9 |
| 20260506040530 | 11 | 77 | 6.4 | 17.7 | 0.00 | 0.00 | 0.00 | 71 | 1012.9 |
| 20260506040046 | 10 | 26 | 8.0 | 19.3 | 0.00 | 0.00 | 0.00 | 72 | 1013.0 |
| 20260506035532 | 10 | 49 | 8.0 | 20.9 | 0.00 | 0.00 | 0.00 | 72 | 1013.0 |
| 20260506035029 | 10 | 100 | 11.3 | 27.4 | 0.00 | 0.00 | 0.00 | 73 | 1012.9 |
| 20260506034543 | 10 | 44 | 8.0 | 29.0 | 0.00 | 0.00 | 0.00 | 74 | 1013.0 |
| 20260506034028 | 10 | 85 | 11.3 | 29.0 | 0.00 | 0.00 | 0.00 | 74 | 1013.1 |
| 20260506033528 | 10 | 78 | 6.4 | 16.1 | 0.00 | 0.00 | 0.00 | 74 | 1013.1 |
| 20260506033046 | 10 | 38 | 6.4 | 16.1 | 0.00 | 0.00 | 0.00 | 74 | 1013.0 |
| 20260506032527 | 10 | 60 | 4.8 | 14.5 | 0.00 | 0.00 | 0.00 | 74 | 1013.0 |
| 20260506032028 | 10 | 347 | 4.8 | 14.5 | 0.00 | 0.00 | 0.00 | 74 | 1012.8 |
| 20260506031544 | 10 | 68 | 8.0 | 14.5 | 0.00 | 0.00 | 0.00 | 73 | 1012.9 |
| 20260506031027 | 10 | 63 | 8.0 | 17.7 | 0.00 | 0.00 | 0.00 | 73 | 1012.9 |
| 20260506030528 | 10 | 21 | 6.4 | 25.7 | 0.00 | 0.00 | 0.00 | 73 | 1012.7 |
| 20260506030044 | 10 | 190 | 9.7 | 29.0 | 0.00 | 0.00 | 0.00 | 73 | 1012.6 |
| 20260506025528 | 10 | 79 | 11.3 | 29.0 | 0.00 | 0.00 | 0.00 | 73 | 1012.4 |
| 20260506025031 | 10 | 354 | 11.3 | 29.0 | 0.00 | 0.00 | 0.00 | 73 | 1012.5 |
| 20260506024545 | 10 | 23 | 4.8 | 25.7 | 0.00 | 0.00 | 0.00 | 74 | 1012.1 |
| 20260506024028 | 10 | 74 | 11.3 | 25.7 | 0.00 | 0.00 | 0.00 | 74 | 1012.1 |
| 20260506023527 | 10 | 49 | 11.3 | 24.1 | 0.00 | 0.00 | 0.00 | 74 | 1012.0 |
| 20260506023055 | 10 | 80 | 12.9 | 24.1 | 0.00 | 0.00 | 0.00 | 74 | 1011.8 |
| 20260506022528 | 10 | 315 | 9.7 | 24.1 | 0.00 | 0.00 | 0.00 | 74 | 1011.7 |
| 20260506022029 | 10 | 9 | 6.4 | 17.7 | 0.00 | 0.00 | 0.00 | 74 | 1011.6 |
| 20260506021552 | 10 | 17 | 8.0 | 19.3 | 0.00 | 0.00 | 0.00 | 74 | 1011.6 |
| 20260506021029 | 10 | 41 | 3.2 | 19.3 | 0.00 | 0.00 | 0.00 | 74 | 1011.5 |
| 20260506020528 | 10 | 120 | 6.4 | 24.1 | 0.00 | 0.00 | 0.00 | 74 | 1011.4 |
| 20260506020039 | 10 | 58 | 12.9 | 24.1 | 0.00 | 0.00 | 0.00 | 74 | 1011.0 |
| 20260506015529 | 10 | 46 | 9.7 | 20.9 | 0.00 | 0.00 | 0.00 | 74 | 1011.0 |
| 20260506015031 | 10 | 77 | 6.4 | 20.9 | 0.00 | 0.00 | 0.00 | 74 | 1011.0 |
| 20260506014540 | 10 | 46 | 6.4 | 20.9 | 0.00 | 0.00 | 0.00 | 74 | 1010.6 |
| 20260506014028 | 10 | 84 | 4.8 | 19.3 | 0.00 | 0.00 | 0.00 | 74 | 1010.7 |
| 20260506013528 | 10 | 26 | 8.0 | 19.3 | 0.00 | 0.00 | 0.00 | 74 | 1010.7 |
| 20260506013044 | 10 | 46 | 6.4 | 29.0 | 0.00 | 0.00 | 0.00 | 74 | 1010.5 |
| 20260506012528 | 10 | 109 | 9.7 | 29.0 | 0.00 | 0.00 | 0.00 | 74 | 1010.3 |
| 20260506012028 | 10 | 20 | 12.9 | 25.7 | 0.00 | 0.00 | 0.00 | 74 | 1010.1 |
| 20260506011540 | 11 | 30 | 6.4 | 20.9 | 0.00 | 0.00 | 0.00 | 74 | 1010.1 |
| 20260506011029 | 11 | 28 | 8.0 | 20.9 | 0.00 | 0.00 | 0.00 | 74 | 1010.2 |
| 20260506010529 | 11 | 86 | 8.0 | 24.1 | 0.00 | 0.00 | 0.00 | 74 | 1010.1 |
| 20260506010054 | 11 | 91 | 9.7 | 24.1 | 0.00 | 0.00 | 0.00 | 73 | 1010.1 |
| 20260506005528 | 11 | 305 | 6.4 | 17.7 | 0.00 | 0.00 | 0.00 | 73 | 1010.0 |
| 20260506005028 | 11 | 35 | 8.0 | 17.7 | 0.00 | 0.00 | 0.00 | 73 | 1009.9 |
| 20260506004547 | 11 | 84 | 8.0 | 29.0 | 0.00 | 0.00 | 0.00 | 73 | 1010.1 |
| 20260506004028 | 11 | 27 | 14.5 | 29.0 | 0.00 | 0.00 | 0.00 | 73 | 1010.0 |
| 20260506003529 | 11 | 60 | 11.3 | 25.7 | 0.00 | 0.00 | 0.00 | 72 | 1010.0 |
| 20260506003041 | 11 | 54 | 6.4 | 22.5 | 0.00 | 0.00 | 0.00 | 72 | 1009.9 |
| 20260506002528 | 11 | 91 | 9.7 | 22.5 | 0.00 | 0.00 | 0.00 | 71 | 1010.2 |
| 20260506002028 | 11 | 80 | 11.3 | 32.2 | 0.00 | 0.00 | 0.00 | 71 | 1010.1 |
| 20260506001547 | 11 | 72 | 8.0 | 32.2 | 0.00 | 0.00 | 0.00 | 71 | 1009.9 |
| 20260506001028 | 11 | 42 | 11.3 | 38.6 | 0.00 | 0.00 | 0.00 | 70 | 1009.3 |
| 20260506000528 | 11 | 47 | 12.9 | 38.6 | 0.00 | 0.00 | 0.00 | 70 | 1009.5 |
| 20260506000044 | 11 | 111 | 8.0 | 20.9 | 0.00 | 0.00 | 0.00 | 70 | 1009.7 |
| 20260505235529 | 11 | 88 | 11.3 | 22.5 | 0.00 | 0.00 | 0.00 | 69 | 1009.5 |
| 20260505235028 | 11 | 83 | 9.7 | 22.5 | 0.00 | 0.00 | 0.00 | 69 | 1009.7 |
| 20260505234605 | 11 | 73 | 8.0 | 24.1 | 0.00 | 0.00 | 0.00 | 70 | 1009.8 |
| 20260505234032 | 11 | 49 | 9.7 | 30.6 | 0.00 | 0.00 | 0.00 | 70 | 1009.7 |
| 20260505233528 | 11 | 34 | 11.3 | 30.6 | 0.00 | 0.00 | 0.00 | 70 | 1009.6 |
| 20260505233042 | 11 | 31 | 14.5 | 30.6 | 0.00 | 0.00 | 0.00 | 70 | 1009.7 |
| 20260505232530 | 11 | 110 | 14.5 | 25.7 | 0.00 | 0.00 | 0.00 | 69 | 1009.4 |
| 20260505232029 | 11 | 337 | 11.3 | 33.8 | 0.00 | 0.00 | 0.00 | 69 | 1009.5 |
| 20260505231542 | 11 | 6 | 11.3 | 33.8 | 0.00 | 0.00 | 0.00 | 69 | 1009.3 |
| 20260505231028 | 11 | 19 | 12.9 | 33.8 | 0.00 | 0.00 | 0.00 | 69 | 1009.5 |
| 20260505230529 | 11 | 340 | 12.9 | 27.4 | 0.00 | 0.00 | 0.00 | 69 | 1009.4 |
| 20260505230045 | 12 | 86 | 9.7 | 25.7 | 0.00 | 0.00 | 0.00 | 69 | 1009.3 |
| 20260505225528 | 12 | 19 | 9.7 | 27.4 | 0.00 | 0.00 | 0.00 | 69 | 1009.0 |
| 20260505225029 | 12 | 32 | 12.9 | 27.4 | 0.00 | 0.00 | 0.00 | 69 | 1009.0 |
| 20260505224542 | 12 | 32 | 11.3 | 20.9 | 0.00 | 0.00 | 0.00 | 69 | 1008.9 |
| 20260505224030 | 12 | 1 | 12.9 | 25.7 | 0.00 | 0.00 | 0.00 | 68 | 1008.4 |
| 20260505223529 | 12 | 323 | 12.9 | 25.7 | 0.00 | 0.00 | 0.00 | 68 | 1008.7 |
| 20260505223040 | 12 | 15 | 11.3 | 24.1 | 0.00 | 0.00 | 0.00 | 68 | 1008.7 |
| 20260505222533 | 12 | 37 | 9.7 | 22.5 | 0.00 | 0.00 | 0.00 | 68 | 1008.7 |
| 20260505222029 | 12 | 42 | 11.3 | 22.5 | 0.00 | 0.00 | 0.00 | 68 | 1008.3 |
| 20260505221542 | 12 | 95 | 8.0 | 22.5 | 0.00 | 0.00 | 0.00 | 68 | 1008.2 |
| 20260505221031 | 12 | 240 | 8.0 | 25.7 | 0.00 | 0.00 | 0.00 | 69 | 1008.1 |
| 20260505220527 | 12 | 11 | 14.5 | 30.6 | 0.00 | 0.00 | 0.00 | 69 | 1007.9 |
| 20260505220045 | 12 | 79 | 14.5 | 30.6 | 0.00 | 0.00 | 0.00 | 69 | 1008.1 |
| 20260505215529 | 12 | 84 | 9.7 | 24.1 | 0.00 | 0.00 | 0.00 | 70 | 1008.2 |
| 20260505215029 | 12 | 34 | 12.9 | 24.1 | 0.00 | 0.00 | 0.00 | 70 | 1008.1 |
| 20260505214559 | 12 | 39 | 9.7 | 19.3 | 0.00 | 0.00 | 0.00 | 70 | 1008.3 |
| 20260505214028 | 12 | 359 | 8.0 | 19.3 | 0.00 | 0.00 | 0.00 | 70 | 1008.2 |
| 20260505213528 | 12 | 37 | 12.9 | 19.3 | 0.00 | 0.00 | 0.00 | 70 | 1008.0 |
| 20260505213057 | 12 | 19 | 4.8 | 16.1 | 0.00 | 0.00 | 0.00 | 71 | 1008.3 |
| 20260505212531 | 12 | 80 | 6.4 | 27.4 | 0.00 | 0.00 | 0.00 | 71 | 1008.5 |
| 20260505212029 | 12 | 350 | 12.9 | 27.4 | 0.00 | 0.00 | 0.00 | 71 | 1008.3 |
| 20260505211539 | 12 | 8 | 6.4 | 22.5 | 0.00 | 0.00 | 0.00 | 72 | 1008.3 |
| 20260505211033 | 12 | 354 | 8.0 | 22.5 | 0.00 | 0.00 | 0.00 | 72 | 1008.2 |
| 20260505210526 | 12 | 358 | 6.4 | 17.7 | 0.00 | 0.00 | 0.00 | 72 | 1007.9 |
| 20260505210040 | 12 | 349 | 9.7 | 22.5 | 0.00 | 0.00 | 0.00 | 72 | 1007.8 |
| 20260505205530 | 12 | 55 | 9.7 | 27.4 | 0.00 | 0.00 | 0.00 | 73 | 1007.5 |
| 20260505205029 | 12 | 4 | 11.3 | 27.4 | 0.00 | 0.00 | 0.00 | 73 | 1007.6 |
| 20260505204553 | 12 | 358 | 6.4 | 19.3 | 0.00 | 0.00 | 0.00 | 74 | 1007.7 |
| 20260505204028 | 12 | 104 | 9.7 | 24.1 | 0.00 | 0.00 | 0.00 | 74 | 1007.9 |
| 20260505203528 | 12 | 81 | 9.7 | 30.6 | 0.00 | 0.00 | 0.00 | 74 | 1008.1 |
| 20260505203047 | 12 | 30 | 12.9 | 30.6 | 0.00 | 0.00 | 0.00 | 74 | 1008.2 |
| 20260505202529 | 12 | 23 | 4.8 | 25.7 | 0.00 | 0.00 | 0.00 | 75 | 1008.2 |
| 20260505202030 | 12 | 82 | 11.3 | 25.7 | 0.00 | 0.00 | 0.00 | 75 | 1007.9 |
| 20260505201539 | 13 | 70 | 11.3 | 24.1 | 0.00 | 0.00 | 0.00 | 74 | 1007.7 |
| 20260505201028 | 13 | 319 | 9.7 | 30.6 | 0.00 | 0.00 | 0.00 | 74 | 1007.5 |
| 20260505200529 | 13 | 351 | 11.3 | 30.6 | 0.00 | 0.00 | 0.00 | 74 | 1007.6 |
| 20260505200058 | 13 | 65 | 14.5 | 30.6 | 0.00 | 0.00 | 0.00 | 74 | 1007.6 |
| 20260505195529 | 13 | 352 | 12.9 | 27.4 | 0.00 | 0.00 | 0.00 | 74 | 1007.7 |
| 20260505195029 | 13 | 56 | 12.9 | 24.1 | 0.00 | 0.00 | 0.00 | 73 | 1007.6 |
| 20260505194545 | 13 | 110 | 6.4 | 20.9 | 0.00 | 0.00 | 0.00 | 75 | 1007.6 |
| 20260505194030 | 13 | 17 | 12.9 | 20.9 | 0.00 | 0.00 | 0.00 | 75 | 1007.6 |
| 20260505193526 | 13 | 27 | 9.7 | 20.9 | 0.00 | 0.00 | 0.00 | 75 | 1007.6 |
| 20260505193048 | 13 | 349 | 3.2 | 22.5 | 0.00 | 0.00 | 0.00 | 77 | 1007.7 |
| 20260505192532 | 13 | 109 | 8.0 | 27.4 | 0.00 | 0.00 | 0.00 | 77 | 1007.7 |
| 20260505192028 | 13 | 20 | 9.7 | 33.8 | 0.00 | 0.00 | 0.00 | 77 | 1007.4 |
| 20260505191542 | 13 | 55 | 11.3 | 33.8 | 0.00 | 0.00 | 0.00 | 77 | 1007.3 |
| 20260505191029 | 13 | 94 | 12.9 | 24.1 | 0.00 | 0.00 | 0.00 | 77 | 1007.3 |
| 20260505190529 | 13 | 43 | 14.5 | 25.7 | 0.00 | 0.00 | 0.00 | 77 | 1007.2 |
| 20260505190042 | 13 | 39 | 11.3 | 25.7 | 0.00 | 0.00 | 0.00 | 78 | 1007.1 |
| 20260505185528 | 13 | 118 | 14.5 | 24.1 | 0.00 | 0.00 | 0.00 | 78 | 1007.1 |
| 20260505185028 | 13 | 46 | 11.3 | 30.6 | 0.00 | 0.00 | 0.00 | 78 | 1006.9 |
| 20260505184538 | 13 | 168 | 12.9 | 30.6 | 0.00 | 0.00 | 0.00 | 79 | 1006.9 |
| 20260505184029 | 13 | 59 | 12.9 | 30.6 | 0.00 | 0.00 | 0.00 | 79 | 1007.0 |
| 20260505183528 | 13 | 279 | 9.7 | 22.5 | 0.00 | 0.00 | 0.00 | 79 | 1006.9 |
| 20260505183044 | 13 | 24 | 9.7 | 20.9 | 0.00 | 0.00 | 0.00 | 80 | 1006.9 |
| 20260505182528 | 13 | 31 | 6.4 | 24.1 | 0.00 | 0.00 | 0.00 | 80 | 1006.8 |
| 20260505182028 | 13 | 70 | 8.0 | 24.1 | 0.00 | 0.00 | 0.00 | 80 | 1006.9 |
| 20260505181543 | 13 | 34 | 8.0 | 22.5 | 0.00 | 0.00 | 0.00 | 80 | 1006.9 |
| 20260505181029 | 13 | 348 | 9.7 | 20.9 | 0.00 | 0.00 | 0.00 | 80 | 1007.2 |
| 20260505180529 | 13 | 47 | 8.0 | 20.9 | 0.00 | 0.00 | 0.00 | 81 | 1007.1 |
| 20260505180103 | 13 | 16 | 8.0 | 20.9 | 0.00 | 0.00 | 0.00 | 81 | 1006.9 |
| 20260505175530 | 13 | 10 | 8.0 | 20.9 | 0.00 | 0.00 | 0.00 | 81 | 1006.8 |
| 20260505175032 | 13 | 39 | 9.7 | 25.7 | 0.00 | 0.00 | 0.00 | 81 | 1006.4 |
| 20260505174558 | 13 | 11 | 9.7 | 25.7 | 0.00 | 0.00 | 0.00 | 81 | 1006.2 |
| 20260505174029 | 13 | 39 | 12.9 | 29.0 | 0.00 | 0.00 | 0.00 | 81 | 1005.7 |
| 20260505173531 | 13 | 306 | 9.7 | 29.0 | 0.00 | 0.00 | 0.00 | 81 | 1006.0 |
| 20260505173045 | 13 | 39 | 9.7 | 29.0 | 0.00 | 0.00 | 0.00 | 81 | 1005.8 |
| 20260505172528 | 13 | 91 | 11.3 | 25.7 | 0.00 | 0.00 | 0.00 | 81 | 1006.0 |
| 20260505172028 | 13 | 358 | 6.4 | 27.4 | 0.00 | 0.00 | 0.00 | 82 | 1005.8 |
| 20260505171546 | 13 | 16 | 14.5 | 27.4 | 0.00 | 0.00 | 0.00 | 81 | 1005.8 |
| 20260505171029 | 13 | 26 | 12.9 | 30.6 | 0.00 | 0.00 | 0.00 | 81 | 1005.9 |
| 20260505170529 | 13 | 8 | 9.7 | 30.6 | 0.00 | 0.00 | 0.00 | 82 | 1006.1 |
| 20260505170048 | 13 | 74 | 11.3 | 25.7 | 0.00 | 0.00 | 0.00 | 82 | 1005.8 |
| 20260505165528 | 13 | 72 | 9.7 | 25.7 | 0.00 | 0.00 | 0.00 | 81 | 1005.2 |
| 20260505165028 | 14 | 45 | 8.0 | 24.1 | 0.00 | 0.00 | 0.00 | 81 | 1005.4 |
| 20260505164539 | 14 | 98 | 8.0 | 24.1 | 0.00 | 0.00 | 0.00 | 82 | 1005.3 |
| 20260505164028 | 14 | 91 | 12.9 | 35.4 | 0.00 | 0.00 | 0.00 | 81 | 1005.2 |
| 20260505163529 | 14 | 96 | 12.9 | 35.4 | 0.00 | 0.00 | 0.00 | 81 | 1005.0 |
| 20260505163042 | 14 | 27 | 14.5 | 30.6 | 0.00 | 0.00 | 0.00 | 81 | 1005.1 |
| 20260505162528 | 15 | 6 | 8.0 | 22.5 | 0.00 | 0.00 | 0.00 | 81 | 1004.9 |
| 20260505162028 | 15 | 4 | 11.3 | 22.5 | 0.00 | 0.00 | 0.00 | 81 | 1004.8 |
| 20260505161541 | 15 | 74 | 9.7 | 25.7 | 0.00 | 0.00 | 0.00 | 81 | 1005.0 |
| 20260505161032 | 15 | 77 | 8.0 | 25.7 | 0.00 | 0.00 | 0.00 | 81 | 1004.8 |
| 20260505160527 | 15 | 25 | 11.3 | 24.1 | 0.00 | 0.00 | 0.00 | 81 | 1004.5 |
| 20260505153045 | 18 | 37 | 12.9 | 29.0 | 0.00 | 0.00 | 0.00 | 76 | 1004.3 |
| 20260505152530 | 20 | 88 | 9.7 | 20.9 | 0.00 | 0.00 | 0.00 | 77 | 1004.0 |
| 20260505152027 | 20 | 356 | 8.0 | 20.9 | 0.00 | 0.00 | 0.00 | 77 | 1003.8 |
| 20260505151543 | 21 | 23 | 9.7 | 20.9 | 0.00 | 0.00 | 0.00 | 75 | 1003.8 |
| 20260505151028 | 21 | 43 | 4.8 | 12.9 | 0.00 | 0.00 | 0.00 | 75 | 1003.6 |
| 20260505150531 | 21 | 335 | 3.2 | 6.4 | 0.00 | 0.00 | 0.00 | 75 | 1003.5 |
| 20260505140528 | 20 | 109 | 6.4 | 14.5 | 0.00 | 0.00 | 0.00 | 78 | 1002.9 |
| 20260505125031 | 19 | 293 | 0.0 | 11.3 | 0.00 | 0.00 | 0.00 | 79 | 1003.1 |
| 20260505124546 | 19 | 110 | 3.2 | 11.3 | 0.00 | 0.00 | 0.00 | 79 | 1003.2 |
| 20260505124030 | 19 | 105 | 1.6 | 11.3 | 0.00 | 0.00 | 0.00 | 78 | 1003.2 |
| 20260505123530 | 19 | 185 | 1.6 | 11.3 | 0.00 | 0.00 | 0.00 | 79 | 1003.2 |
| 20260505123047 | 19 | 0 | 1.6 | 14.5 | 0.00 | 0.00 | 0.00 | 79 | 1003.0 |
| 20260505122531 | 19 | 82 | 3.2 | 14.5 | 0.00 | 0.00 | 0.00 | 79 | 1003.1 |
| 20260505122035 | 19 | 223 | 3.2 | 17.7 | 0.00 | 0.00 | 0.00 | 79 | 1002.9 |
| 20260505121540 | 19 | 204 | 4.8 | 20.9 | 0.00 | 0.00 | 0.00 | 79 | 1002.8 |
| 20260505121031 | 19 | 59 | 6.4 | 20.9 | 0.00 | 0.00 | 0.00 | 79 | 1002.9 |
| 20260505120529 | 19 | 44 | 9.7 | 20.9 | 0.00 | 0.00 | 0.00 | 79 | 1002.9 |
| 20260505120043 | 19 | 101 | 8.0 | 20.9 | 0.00 | 0.00 | 0.00 | 79 | 1002.8 |
| 20260505115528 | 19 | 85 | 6.4 | 29.0 | 0.00 | 0.00 | 0.00 | 79 | 1002.8 |
| 20260505115033 | 19 | 65 | 6.4 | 29.0 | 0.00 | 0.00 | 0.00 | 79 | 1002.7 |
| 20260505114544 | 19 | 66 | 11.3 | 20.9 | 0.00 | 0.00 | 0.00 | 79 | 1002.7 |